{"data":{"norad_id":43700,"epoch":"2026-09-20T01:38:46.409280Z","epoch_age_seconds":51679,"freshness":"FRESH","line1":"1 43700U 18090A   26263.06859270  .00000140  00000+0  00000+0 0  9991","line2":"2 43700   0.0190 191.4174 0001224 323.4842 254.5471  1.00270970 28620","mean_motion":1.0027097,"eccentricity":0.0001224,"inclination_deg":0.019,"raan_deg":191.4174,"arg_perigee_deg":323.4842,"mean_anomaly_deg":254.5471,"bstar":0,"rev_number":2862,"period_min":1436.10857659,"perigee_km":35781.662445666,"apogee_km":35791.984427981,"semimajor_km":42164.960436824,"source":"CELESTRAK","updated_at":"2026-09-20T09:00:45.234984Z"}}